Powrót do katalogu

DELTA 1 DEB

AktywnySSO
NORAD 10718·DEBRIS·🇺🇸 United States

Wystrzelony Jul 29, 1976 z Vandenberg Space Force Base

Loading…

Następne Przeloty (najbliższe 24 godziny)

TLE

ŚwieżeSource: Space-Track

Epoka: Sep 14, 2026, 13:19 UTC

1 10718U 76077AP  26257.55487512  .00000011  00000-0  38844-3 0  9995
2 10718 101.6051 280.6791 0052186 263.7047 251.8056 12.42899132271870

Śledź DELTA 1 DEB w czasie rzeczywistym z AllMySat

Download on the App Store